DELTA 1 DEB, 42567

Orbit data source: Space-Track

DELTA 1 DEB, 42567 is space debris in SSO originally from a launch on Sun, 23 Jul 1972 UTC launched from the Air Force Western Test Range (AFWTR). Debris objects in space refer to the collection of defunct objects orbiting the Earth. Examples of debris include non-operational satellites, rocket bodies, and fragments generated from explosions, collisions, or faulty payload assembly.

Loading next visibility...
Identifier
42567, 1972-058KA
Orbit
SSO
Country
Flag of USUS
Related business
Manufacturer
Unknown
Mission
Spacecraft
Bus & Motor
Unknown
Mass
Unknown
Launch date (UTC)
1972-07-23 (53 years ago)
Launch vehicle
Unknown
Launch site
Air Force Western Test Range (AFWTR)
Object type
Payload
Rocket body
Debris
Shape & HBR
Unknown shape, 0.1 m
Radar Cross Section
Small (<0.1 m²)

Expand to show TLE details & history
Last TLE update: 3 days ago

TLE from 3 days ago
0 DELTA 1 DEB
1 42567U 72058KA  25347.59961301  .00002466  00000-0  41108-3 0  9996
2 42567  98.4969 112.8419 0111813 218.3283 140.9936 14.66933926643485
Epoch: 2025-12-13T14:23Z
TLE epoch observation values (Epoch: 2025-12-13T14:23:26.564Z)
Latitude
-0.00004°
Longitude
174.45666°
Altitude
735.463 km
Speed
7.454 km/s
True Right ascension
07h 31m 22s
True Declination
0° 00' 00"
Sunlit
Object was in full shadow at epoch
Visualization orbit readout
Latitude
Unknown
Longitude
Unknown
Altitude
Unknown
Speed
Unknown
Apparent Right ascension
Unknown
Apparent Declination
Unknown
Sunlit
N/A
Visualization observer readout
Local Sidereal Time
19:47:47
Azimuth
Unknown
Elevation
Unknown
Doppler factor
Unknown
Orbital elements
Apogee altitude
746.743 km
Perigee altitude
589.174 km
Semi-major axis
7,046.096 km
Eccentricity
0.01118
Inclination
98.4969°
RAAN
112.8419°
Arg. of periapsis
218.3283°
True anomaly
141.79135°
Mean anomaly
140.9936°
Eccentric anomaly
141.39334°
Mean motion
3.66961 °/min
Orbital period
98.1 mins
BSTAR
0.00041108
Loading maneuver chart data...
Computing Atmospheric mass density...

Documentation

Showing up to 5 results
|